GW6141 Weather Reports


time (UTC)temp
C
wind
direction
speed
KPH
gust
KPH
rain 1hr
cm
rain 24hr
cm
rain mn
cm
humidity
%
barometer
mb
20260508033023 10 0.0 0.0 0.00 0.28 0.28 66 1012.3
20260508031525 10 0.0 0.0 0.00 0.28 0.28 67 1012.2
20260508030009 11 0.0 0.0 0.00 0.28 0.28 68 1012.0
20260508024530 11 275 0.0 0.0 0.00 0.28 0.28 67 1011.8
20260508023025 11 275 0.0 0.0 0.00 0.28 0.28 66 1011.7
20260508021520 12 275 0.0 0.0 0.00 0.28 0.28 65 1011.5
20260508020006 12 275 0.0 0.0 0.00 0.28 0.28 64 1011.3
20260508014510 12 275 0.0 0.0 0.00 0.28 0.28 65 1011.0
20260508013007 12 275 0.0 0.0 0.00 0.28 0.28 66 1010.9
20260508011517 12 275 0.0 0.0 0.00 0.28 0.28 66 1010.7
20260508010032 12 275 0.0 0.0 0.00 0.28 0.28 67 1010.6
20260508004508 12 275 0.0 0.0 0.00 0.28 0.28 67 1010.6
20260508003014 12 275 0.0 0.0 0.00 0.28 0.28 68 1010.5
20260508001516 12 275 0.0 0.0 0.00 0.28 0.28 69 1010.5
20260508000021 12 275 0.0 0.0 0.00 0.28 0.28 68 1010.2
20260507234527 12 275 0.0 0.0 0.00 0.28 0.28 69 1009.9
20260507233020 12 275 0.0 0.0 0.00 0.28 0.28 70 1009.7
20260507231522 12 275 0.0 0.0 0.00 0.28 0.28 70 1009.5
20260507230022 12 275 0.0 0.0 0.00 0.28 0.28 71 1009.5
20260507224518 12 275 0.0 0.0 0.00 0.28 0.28 71 1009.5
20260507223016 12 275 0.0 0.0 0.00 0.28 0.28 69 1009.4
20260507221514 12 275 0.0 0.0 0.00 0.28 0.28 68 1009.4
20260507220020 12 275 0.0 0.0 0.00 0.28 0.28 70 1009.3
20260507214524 12 275 0.0 0.0 0.00 0.28 0.28 73 1009.6
20260507213024 12 275 0.0 0.0 0.00 0.28 0.28 67 1009.5
20260507211523 12 275 0.0 0.0 0.00 0.28 0.28 68 1009.3
20260507210015 12 275 0.0 0.0 0.00 0.28 0.28 72 1009.2
20260507204514 12 275 0.0 0.0 0.00 0.28 0.28 68 1009.1
20260507203031 12 146 0.0 0.0 0.00 0.28 0.28 74 1009.3
20260507201528 12 276 0.0 0.0 0.00 0.28 0.28 71 1009.6
20260507200028 12 276 0.0 0.0 0.00 0.28 0.28 68 1009.7
20260507194519 12 276 0.0 0.0 0.00 0.28 0.28 65 1009.7
20260507193022 12 276 0.0 0.0 0.00 0.28 0.28 67 1010.1
20260507191518 12 276 0.0 0.0 0.00 0.28 0.28 67 1010.4
20260507190030 11 276 0.0 0.0 0.00 0.28 0.28 66 1010.5
20260507184510 11 276 0.0 0.0 0.00 0.28 0.28 66 1010.5
20260507183012 11 277 0.0 0.0 0.00 0.28 0.28 65 1010.6
20260507181512 11 279 0.0 4.8 0.00 0.28 0.28 67 1010.7
20260507180015 11 113 0.0 0.0 0.00 0.28 0.28 67 1010.6
20260507174514 11 113 1.6 6.4 0.00 0.28 0.28 68 1010.4
20260507173020 11 113 3.2 4.8 0.00 0.30 0.28 67 1010.2
20260507171514 11 113 1.6 6.4 0.00 0.30 0.28 68 1010.6
20260507170008 12 112 1.6 4.8 0.00 0.30 0.28 64 1010.7
20260507164509 12 113 1.6 6.4 0.00 0.30 0.28 65 1010.7
20260507163014 12 142 0.0 6.4 0.00 0.30 0.28 64 1010.8
20260507161514 11 117 3.2 9.7 0.08 0.30 0.28 66 1010.7
20260507160015 11 108 3.2 9.7 0.08 0.30 0.28 66 1011.0
20260507154512 11 107 1.6 9.7 0.10 0.30 0.28 63 1011.1
20260507153013 11 101 1.6 6.4 0.10 0.30 0.28 64 1011.2
20260507151514 12 96 0.0 4.8 0.03 0.23 0.20 63 1011.2
20260507150023 12 103 3.2 6.4 0.05 0.23 0.20 64 1011.1
20260507144524 12 68 3.2 6.4 0.03 0.20 0.18 64 1011.2
20260507143016 12 111 4.8 6.4 0.05 0.20 0.18 63 1011.0
20260507141514 12 105 1.6 6.4 0.08 0.23 0.18 64 1011.0
20260507140015 12 106 3.2 9.7 0.05 0.25 0.15 66 1011.3
20260507134526 12 105 4.8 9.7 0.05 0.25 0.15 64 1011.0
20260507133016 13 117 3.2 6.4 0.08 0.25 0.13 62 1011.4
20260507131521 13 96 1.6 9.7 0.05 0.23 0.10 65 1011.1
20260507130018 13 103 1.6 6.4 0.05 0.23 0.10 62 1011.1
20260507124526 13 271 1.6 6.4 0.05 0.23 0.10 65 1010.9
20260507123016 13 125 3.2 9.7 0.00 0.18 0.05 65 1010.8
20260507121519 14 313 3.2 14.5 0.00 0.20 0.05 69 1010.7
20260507120023 15 109 4.8 9.7 0.00 0.25 0.05 59 1010.3
20260507114518 15 150 3.2 4.8 0.00 0.25 0.05 58 1010.1
20260507113023 15 151 0.0 0.0 0.00 0.25 0.05 59 1009.6
20260507111517 16 151 0.0 0.0 0.00 0.25 0.05 59 1009.6
20260507110011 16 253 0.0 3.2 0.00 0.25 0.05 57 1009.5
20260507104517 16 251 0.0 0.0 0.00 0.25 0.05 56 1009.4
20260507103013 16 251 0.0 0.0 0.03 0.25 0.05 56 1009.2
20260507101509 16 251 0.0 0.0 0.03 0.25 0.05 55 1009.0
20260507100008 16 251 0.0 0.0 0.03 0.25 0.05 56 1008.9
20260507094504 16 251 0.0 0.0 0.03 0.25 0.05 56 1009.3
20260507093025 16 251 0.0 0.0 0.00 0.23 0.03 56 1008.9
20260507091503 16 251 0.0 0.0 0.00 0.23 0.03 56 1008.9
20260507090019 16 251 0.0 0.0 0.00 0.23 0.03 56 1009.1
20260507084510 17 251 0.0 0.0 0.00 0.23 0.03 57 1009.1
20260507083008 17 251 0.0 0.0 0.00 0.23 0.03 57 1009.1
20260507081506 17 251 0.0 0.0 0.00 0.23 0.03 56 1009.1
20260507080004 17 251 0.0 0.0 0.00 0.23 0.03 57 1009.2
20260507074508 17 251 0.0 0.0 0.00 0.23 0.03 58 1009.3
20260507073016 17 251 0.0 0.0 0.00 0.23 0.03 59 1008.7
20260507071514 17 251 0.0 0.0 0.00 0.23 0.03 58 1009.0
20260507070013 17 251 0.0 0.0 0.00 0.23 0.03 59 1009.0
20260507064509 17 251 0.0 0.0 0.00 0.23 0.03 61 1008.8
20260507063005 17 251 0.0 0.0 0.00 0.23 0.03 62 1008.8
20260507061516 17 251 0.0 0.0 0.00 0.23 0.03 63 1009.1
20260507060024 17 249 0.0 3.2 0.00 0.23 0.03 64 1009.4
20260507054535 17 249 0.0 9.7 0.00 0.23 0.03 64 1009.5
20260507053010 17 114 0.0 4.8 0.00 0.23 0.03 62 1009.3
20260507051510 18 258 0.0 6.4 0.00 0.23 0.03 61 1009.2
20260507050008 18 304 0.0 3.2 0.03 0.23 0.03 61 1009.0
20260507044526 18 271 0.0 3.2 0.03 0.23 0.03 61 1009.0
20260507043025 18 255 0.0 4.8 0.03 0.23 0.03 63 1009.2
20260507041511 18 74 0.0 1.6 0.03 0.23 0.03 64 1009.5
20260507040018 18 107 0.0 1.6 0.00 0.20 0.00 71 1009.9
20260507034512 18 243 0.0 8.0 0.00 0.20 0.20 72 1010.2